Hillsdale, MI

6:11 PM EST on November 11, 2019 (GMT -0500)
Hillsdale Municipal

Weather History for KJYM - October, 2019

Change the Weather History Date:

Tuesday, October 15, 2019

  Actual Average Record
Temperature  
Mean Temperature 49 °F -  
Max Temperature 66 °F 62 °F 83 °F (1989)
Min Temperature 32 °F 40 °F 26 °F (1969)
Degree Days  
Heating Degree Days 16    
Moisture  
Dew Point 39 °F    
Average Humidity 68    
Maximum Humidity 98    
Minimum Humidity 38    
Precipitation  
Precipitation 0.00 in - - ()
Sea Level Pressure  
Sea Level Pressure 29.92 in    
Wind  
Wind Speed 5 mph ()    
Max Wind Speed 17 mph    
Max Gust Speed 24 mph    
Visibility 9.9 miles    
Events Rain    
Averages and records for this station are not official NWS values.
T = Trace of Precipitation, MM = Missing Value Source: Averaged Metar Reports

Daily Weather History Graph

Daily Weather History Graph

Search for Another Location

Airport or City:

Astronomy

Oct. 15, 2019 Rise Set
Actual Time 7:50 AM EDT 6:57 PM EDT
Civil Twilight 7:22 AM EDT 7:25 PM EDT
Nautical Twilight 6:50 AM EDT 7:57 PM EDT
Astronomical Twilight 6:17 AM EDT 8:29 PM EDT
Moon 8:15 PM EDT (10/15) 9:20 AM EDT (10/15)
Length of Visible Light 12h 02m
Length of Day
11h 06m
Full, 97% of the Moon is Illuminated
Oct 15
Full
Oct 21
Last Quarter
Oct 27
New
Nov 4
First Quarter
Nov 12
Full

Hourly Weather History & Observations

Time (EDT) Temp. Windchill Dew Point Humidity Pressure Visibility Wind Dir Wind Speed Gust Speed Precip Events Conditions
12:15 AM 34.0 °F - 32.5 °F 94% 30.09 in 10.0 mi Calm Calm - N/A   Clear
12:16 AM 34.2 °F - 32.7 °F 94% 30.09 in 10.0 mi Calm Calm - N/A   Clear
12:39 AM 32.9 °F - 31.8 °F 96% 30.09 in 10.0 mi Calm Calm - N/A   Clear
12:57 AM 33.1 °F - 32.0 °F 96% 30.09 in 10.0 mi Calm Calm - N/A   Clear
1:15 AM 33.4 °F - 32.2 °F 95% 30.09 in 10.0 mi Calm Calm - N/A   Clear
1:35 AM 34.0 °F - 32.7 °F 95% 30.08 in 10.0 mi Calm Calm - N/A   Clear
1:36 AM 34.0 °F - 32.7 °F 95% 30.08 in 10.0 mi Calm Calm - N/A   Clear
1:55 AM 33.8 °F - 32.7 °F 96% 30.08 in 10.0 mi Calm Calm - N/A   Clear
2:00 AM 33.8 °F - 32.4 °F 94% 30.09 in 10.0 mi Calm Calm - N/A   Clear
2:18 AM 33.1 °F - 32.0 °F 96% 30.09 in 10.0 mi Calm Calm - N/A   Clear
2:36 AM 32.4 °F - 31.6 °F 97% 30.09 in 10.0 mi Calm Calm - N/A   Clear
2:55 AM 33.1 °F - 32.0 °F 96% 30.09 in 10.0 mi Calm Calm - N/A   Clear
3:15 AM 32.5 °F - 32.0 °F 98% 30.09 in 10.0 mi Calm Calm - N/A   Clear
3:16 AM 32.7 °F - 32.0 °F 97% 30.09 in 10.0 mi Calm Calm - N/A   Clear
3:39 AM 32.5 °F - 32.0 °F 98% 30.09 in 10.0 mi Calm Calm - N/A   Clear
3:57 AM 32.2 °F - 31.5 °F 97% 30.08 in 10.0 mi Calm Calm - N/A   Clear
4:15 AM 32.2 °F - 31.6 °F 98% 30.09 in 10.0 mi Calm Calm - N/A   Clear
4:35 AM 32.5 °F 27.1 °F 31.3 °F 95% 30.08 in 10.0 mi SE 5.8 mph - N/A   Clear
4:36 AM 32.5 °F 27.1 °F 31.3 °F 95% 30.08 in 10.0 mi SE 5.8 mph - N/A   Clear
4:55 AM 35.6 °F 31.7 °F 32.4 °F 88% 30.08 in 10.0 mi SE 4.6 mph - N/A   Clear
5:00 AM 35.8 °F 30.9 °F 32.4 °F 87% 30.08 in 10.0 mi SE 5.8 mph - N/A   Clear
5:18 AM 37.2 °F 32.6 °F 32.4 °F 83% 30.08 in 10.0 mi SE 5.8 mph - N/A   Clear
5:36 AM 36.9 °F 31.4 °F 32.2 °F 83% 30.08 in 10.0 mi SE 6.9 mph - N/A   Clear
5:55 AM 37.4 °F 32.1 °F 32.5 °F 83% 30.08 in 10.0 mi SE 6.9 mph - N/A   Clear
5:56 AM 37.4 °F 32.1 °F 32.5 °F 83% 30.08 in 10.0 mi SE 6.9 mph - N/A   Clear
6:15 AM 38.1 °F 32.9 °F 32.9 °F 81% 30.09 in 10.0 mi SE 6.9 mph - N/A   Clear
6:16 AM 38.1 °F 32.9 °F 32.9 °F 81% 30.09 in 10.0 mi SE 6.9 mph - N/A   Clear
6:39 AM 37.8 °F 33.3 °F 32.9 °F 83% 30.09 in 10.0 mi SE 5.8 mph - N/A   Clear
6:57 AM 36.9 °F 32.2 °F 32.2 °F 83% 30.09 in 10.0 mi SE 5.8 mph - N/A   Clear
7:15 AM 37.4 °F 32.1 °F 32.5 °F 83% 30.08 in 10.0 mi ESE 6.9 mph - N/A   Clear
7:35 AM 38.1 °F 33.7 °F 32.7 °F 81% 30.07 in 10.0 mi SE 5.8 mph - N/A   Clear
7:55 AM 38.5 °F 32.7 °F 32.9 °F 80% 30.06 in 10.0 mi SE 8.1 mph - N/A   Clear
8:00 AM 38.5 °F 33.4 °F 32.9 °F 80% 30.06 in 10.0 mi SE 6.9 mph - N/A   Clear
8:18 AM 38.7 °F 33.6 °F 32.9 °F 80% 30.06 in 10.0 mi SE 6.9 mph - N/A   Clear
8:36 AM 39.4 °F 34.5 °F 33.1 °F 78% 30.05 in 10.0 mi SE 6.9 mph - N/A   Clear
8:55 AM 40.5 °F 35.8 °F 33.3 °F 75% 30.04 in 10.0 mi SE 6.9 mph - N/A   Clear
8:56 AM 40.5 °F 35.8 °F 33.3 °F 75% 30.04 in 10.0 mi SE 6.9 mph - N/A   Clear
9:15 AM 41.9 °F 37.5 °F 34.5 °F 75% 30.04 in 10.0 mi SSE 6.9 mph - N/A   Clear
9:16 AM 41.9 °F 38.2 °F 34.5 °F 75% 30.04 in 10.0 mi SSE 5.8 mph - N/A   Clear
9:57 AM 46.0 °F 41.9 °F 36.0 °F 68% 30.03 in 10.0 mi SSE 8.1 mph - N/A   Clear
10:15 AM 48.0 °F - 36.7 °F 65% 30.02 in 10.0 mi SSE 6.9 mph - N/A   Clear
10:16 AM 48.0 °F - 37.0 °F 66% 30.02 in 10.0 mi SSE 8.1 mph - N/A   Clear
10:35 AM 49.5 °F - 36.9 °F 62% 30.02 in 10.0 mi SSE 10.4 mph - N/A   Clear
10:36 AM 49.6 °F - 36.9 °F 61% 30.02 in 10.0 mi SSE 12.7 mph 17.3 mph N/A   Clear
10:55 AM 51.1 °F - 37.4 °F 60% 30.00 in 10.0 mi SSE 12.7 mph 17.3 mph N/A   Clear
11:18 AM 52.9 °F - 38.1 °F 57% 29.99 in 10.0 mi South 13.8 mph 19.6 mph N/A   Clear
11:36 AM 53.4 °F - 38.1 °F 56% 29.98 in 10.0 mi South 17.3 mph 23.0 mph N/A   Clear
11:55 AM 54.9 °F - 38.1 °F 53% 29.96 in 10.0 mi SSE 17.3 mph 21.9 mph N/A   Clear
12:15 PM 56.5 °F - 39.0 °F 52% 29.95 in 10.0 mi South 13.8 mph 19.6 mph N/A   Clear
12:16 PM 56.5 °F - 39.0 °F 52% 29.96 in 10.0 mi South 12.7 mph 19.6 mph N/A   Clear
12:39 PM 57.6 °F - 38.1 °F 48% 29.94 in 10.0 mi SSE 13.8 mph 24.2 mph N/A   Clear
12:57 PM 59.2 °F - 38.3 °F 46% 29.94 in 10.0 mi SSE 13.8 mph 18.4 mph N/A   Clear
1:15 PM 60.8 °F - 37.2 °F 42% 29.91 in 10.0 mi SSE 11.5 mph 21.9 mph N/A   Clear
1:35 PM 61.5 °F - 35.8 °F 38% 29.91 in 10.0 mi South 15.0 mph 20.7 mph N/A   Clear
1:36 PM 61.5 °F - 35.6 °F 38% 29.91 in 10.0 mi South 15.0 mph 20.7 mph N/A   Clear
1:55 PM 61.7 °F - 36.7 °F 39% 29.89 in 10.0 mi South 12.7 mph 18.4 mph N/A   Clear
2:00 PM 62.2 °F - 37.0 °F 39% 29.89 in 10.0 mi SSE 10.4 mph 18.4 mph N/A   Clear
2:18 PM 62.8 °F - 37.0 °F 38% 29.87 in 10.0 mi South 10.4 mph 18.4 mph N/A   Scattered Clouds
2:36 PM 62.4 °F - 37.0 °F 39% 29.86 in 10.0 mi SSE 10.4 mph 19.6 mph N/A   Mostly Cloudy
2:55 PM 63.7 °F - 37.6 °F 38% 29.86 in 10.0 mi SSE 9.2 mph 17.3 mph N/A   Overcast
2:56 PM 63.7 °F - 37.6 °F 38% 29.86 in 10.0 mi SSE 10.4 mph 17.3 mph N/A   Overcast
3:15 PM 63.3 °F - 37.8 °F 39% 29.83 in 10.0 mi SSE 11.5 mph 20.7 mph N/A   Overcast
3:16 PM 63.5 °F - 37.9 °F 39% 29.83 in 10.0 mi SE 12.7 mph 20.7 mph N/A   Overcast
3:39 PM 64.2 °F - 38.8 °F 39% 29.81 in 10.0 mi SSE 10.4 mph 17.3 mph N/A   Mostly Cloudy
3:57 PM 66.0 °F - 39.4 °F 38% 29.78 in 10.0 mi SSE 11.5 mph 20.7 mph N/A   Scattered Clouds
4:15 PM 66.0 °F - 39.7 °F 38% 29.79 in 10.0 mi South 16.1 mph 23.0 mph N/A   Scattered Clouds
4:35 PM 65.7 °F - 40.1 °F 39% 29.79 in 10.0 mi South 11.5 mph 19.6 mph N/A   Overcast
4:36 PM 65.7 °F - 40.1 °F 39% 29.79 in 10.0 mi South 11.5 mph 19.6 mph N/A   Overcast
4:55 PM 66.0 °F - 41.0 °F 40% 29.78 in 10.0 mi SSE 8.1 mph - N/A   Overcast
5:00 PM 65.8 °F - 40.8 °F 40% 29.78 in 10.0 mi South 11.5 mph - N/A   Overcast
5:18 PM 65.5 °F - 41.0 °F 41% 29.77 in 10.0 mi South 8.1 mph - N/A   Overcast
5:36 PM 65.5 °F - 41.0 °F 41% 29.76 in 10.0 mi SSE 6.9 mph - N/A   Overcast
5:55 PM 64.8 °F - 41.7 °F 43% 29.76 in 10.0 mi SSE 5.8 mph - N/A   Overcast
6:15 PM 64.0 °F - 42.4 °F 45% 29.75 in 10.0 mi SSE 6.9 mph - N/A   Overcast
6:16 PM 64.0 °F - 42.4 °F 45% 29.75 in 10.0 mi SSE 6.9 mph - N/A   Overcast
6:39 PM 63.5 °F - 42.8 °F 47% 29.75 in 10.0 mi SSE 5.8 mph - N/A   Overcast
6:57 PM 63.5 °F - 43.2 °F 47% 29.75 in 10.0 mi SSE 4.6 mph - N/A   Overcast
7:15 PM 63.3 °F - 43.7 °F 49% 29.74 in 10.0 mi SSE 5.8 mph - N/A   Overcast
7:35 PM 62.6 °F - 44.8 °F 52% 29.74 in 10.0 mi SSE 5.8 mph - N/A   Overcast
7:36 PM 62.6 °F - 44.8 °F 52% 29.74 in 10.0 mi SSE 5.8 mph - N/A   Overcast
7:55 PM 63.0 °F - 45.5 °F 53% 29.74 in 10.0 mi South 4.6 mph - N/A   Overcast
8:00 PM 62.8 °F - 45.7 °F 54% 29.74 in 10.0 mi South 3.5 mph - N/A   Overcast
8:18 PM 63.1 °F - 46.6 °F 55% 29.74 in 10.0 mi South 6.9 mph - N/A   Overcast
8:36 PM 62.8 °F - 47.3 °F 57% 29.73 in 10.0 mi South 4.6 mph - N/A   Overcast
8:55 PM 62.6 °F - 48.2 °F 59% 29.72 in 10.0 mi South 5.8 mph - N/A   Overcast
9:15 PM 63.0 °F - 49.1 °F 61% 29.71 in 10.0 mi South 6.9 mph - N/A   Overcast
9:16 PM 63.0 °F - 49.1 °F 61% 29.71 in 10.0 mi South 8.1 mph - N/A   Overcast
9:39 PM 63.5 °F - 51.1 °F 64% 29.71 in 10.0 mi SSW 10.4 mph 20.7 mph N/A   Overcast
9:57 PM 62.8 °F - 52.0 °F 68% 29.70 in 10.0 mi SSW 12.7 mph 21.9 mph N/A   Overcast
10:15 PM 62.1 °F - 53.1 °F 72% 29.70 in 10.0 mi SSW 12.7 mph 18.4 mph N/A   Scattered Clouds
10:35 PM 61.3 °F - 54.5 °F 78% 29.69 in 10.0 mi SW 10.4 mph - N/A   Scattered Clouds
10:36 PM 61.3 °F - 54.5 °F 78% 29.69 in 10.0 mi SSW 11.5 mph - N/A   Scattered Clouds
10:55 PM 61.0 °F - 55.0 °F 81% 29.69 in 10.0 mi SSW 11.5 mph 16.1 mph N/A   Overcast
11:00 PM 60.8 °F - 55.2 °F 82% 29.69 in 10.0 mi SW 11.5 mph 19.6 mph N/A   Overcast
11:18 PM 60.1 °F - 55.2 °F 84% 29.67 in 10.0 mi SSW 9.2 mph 17.3 mph N/A   Overcast
11:35 PM 60.3 °F - 55.6 °F 85% 29.66 in 10.0 mi SSW 9.2 mph 17.3 mph N/A   Overcast
11:55 PM 59.5 °F - 56.1 °F 88% 29.66 in 5.0 mi SSW 10.4 mph 17.3 mph N/A Rain Rain
11:56 PM 59.4 °F - 56.1 °F 89% 29.66 in 5.0 mi SSW 12.7 mph 20.7 mph N/A Rain Rain